Location: Newark
(58.6000°N, 7.8338°E)
Time: 08:17:42
(UTC+00:00)

OTV 5 (USA 277) - Visible Passes

Search period start: 19 August 2019 00:00
Search period end: 29 August 2019 00:00
Orbit: 305 x 329 km, 54.5° (Epoch: 11 August)

Date Brightness Start Highest point End Pass type
(mag) Time Alt. Az. Time Alt. Az. Time Alt. Az.
19 Aug ? 01:56:30 29° SSW 01:56:48 30° S 01:59:11 10° SE visible
20 Aug ? 02:11:00 24° SSW 02:11:11 24° SSW 02:13:25 10° SE visible
21 Aug ? 02:25:53 17° SSW 02:25:53 17° SSW 02:27:26 10° SSE visible
26 Aug ? 20:00:57 10° SSW 20:02:37 15° SSE 20:02:58 15° SE visible
27 Aug ? 20:14:48 10° SW 20:16:57 22° SSE 20:17:19 21° SSE visible
28 Aug ? 20:28:58 10° SW 20:31:20 28° SSE 20:31:29 28° SSE visible
